Time,TemperatureF,DewpointF,PressureIn,WindDirection,WindDirectionDegrees,WindSpeedMPH,WindSpeedGustMPH,Humidity,HourlyPrecipIn,Conditions,Clouds,dailyrainin,SolarRadiationWatts/m^2,SoftwareType,DateUTC
2013-03-29 00:00:00,35.8,33.4,29.92,ESE,102,0.0,1.0,91,-99.99,,,-99.99,0.0,meteohub,2013-03-29 04:00:00,
2013-03-29 00:01:00,35.8,33.4,29.92,ESE,102,0.0,1.0,91,-99.99,,,-99.99,0.0,meteohub,2013-03-29 04:01:00,
2013-03-29 00:04:00,36.0,33.6,29.92,ESE,102,0.0,1.0,91,-99.99,,,-99.99,0.0,meteohub,2013-03-29 04:04:00,
2013-03-29 00:09:00,36.1,33.8,29.91,ESE,102,0.0,1.0,91,-99.99,,,-99.99,0.0,meteohub,2013-03-29 04:09:00,
2013-03-29 00:14:00,36.3,33.6,29.92,ESE,102,0.0,2.0,90,-99.99,,,-99.99,0.0,meteohub,2013-03-29 04:14:00,
2013-03-29 00:19:00,36.9,34.0,29.92,ESE,102,0.0,2.0,89,-99.99,,,-99.99,0.0,meteohub,2013-03-29 04:19:00,
2013-03-29 00:24:00,36.9,33.6,29.92,ESE,102,0.0,2.0,88,-99.99,,,-99.99,0.0,meteohub,2013-03-29 04:24:00,
2013-03-29 00:29:00,36.9,33.4,29.92,ESE,102,0.0,1.0,87,-99.99,,,-99.99,0.0,meteohub,2013-03-29 04:29:00,
2013-03-29 00:34:00,36.9,33.4,29.93,ESE,102,0.0,1.0,87,-99.99,,,-99.99,0.0,meteohub,2013-03-29 04:34:00,
2013-03-29 00:39:00,37.6,34.0,29.93,WSW,256,1.0,1.0,87,-99.99,,,-99.99,0.0,meteohub,2013-03-29 04:39:00,
2013-03-29 00:44:00,38.5,34.3,29.93,West,270,0.0,3.0,85,-99.99,,,-99.99,0.0,meteohub,2013-03-29 04:44:00,
2013-03-29 00:49:00,38.8,34.3,29.93,West,270,0.0,4.0,84,-99.99,,,-99.99,0.0,meteohub,2013-03-29 04:49:00,
2013-03-29 00:54:00,39.2,34.5,29.93,West,267,2.0,4.0,83,-99.99,,,-99.99,0.0,meteohub,2013-03-29 04:54:00,
2013-03-29 01:00:00,39.6,34.5,29.93,West,265,2.0,6.0,82,-99.99,,,-99.99,0.0,meteohub,2013-03-29 05:00:00,
2013-03-29 01:05:00,39.7,34.7,29.93,West,265,2.0,6.0,82,-99.99,,,-99.99,0.0,meteohub,2013-03-29 05:05:00,
2013-03-29 01:10:00,39.9,34.9,29.93,West,261,1.0,6.0,82,-99.99,,,-99.99,0.0,meteohub,2013-03-29 05:10:00,
2013-03-29 01:15:00,39.9,34.9,29.93,WSW,248,2.0,4.0,82,-99.99,,,-99.99,0.0,meteohub,2013-03-29 05:15:00,
2013-03-29 01:20:00,40.5,35.1,29.93,WSW,257,3.0,4.0,81,-99.99,,,-99.99,0.0,meteohub,2013-03-29 05:20:00,
2013-03-29 01:25:00,40.5,35.1,29.93,West,273,3.0,4.0,81,-99.99,,,-99.99,0.0,meteohub,2013-03-29 05:25:00,
2013-03-29 01:31:00,40.6,35.2,29.93,West,267,2.0,5.0,81,-99.99,,,-99.99,0.0,meteohub,2013-03-29 05:31:00,
2013-03-29 01:36:00,40.8,35.4,29.93,West,264,3.0,5.0,81,-99.99,,,-99.99,0.0,meteohub,2013-03-29 05:36:00,
2013-03-29 01:41:00,40.8,35.4,29.93,West,260,3.0,6.0,81,-99.99,,,-99.99,0.0,meteohub,2013-03-29 05:41:00,
2013-03-29 01:46:00,40.6,35.2,29.93,West,259,3.0,6.0,81,-99.99,,,-99.99,0.0,meteohub,2013-03-29 05:46:00,
2013-03-29 01:51:00,40.6,35.2,29.93,West,259,3.0,6.0,81,-99.99,,,-99.99,0.0,meteohub,2013-03-29 05:51:00,
2013-03-29 01:56:00,40.6,35.6,29.93,West,277,4.0,5.0,82,-99.99,,,-99.99,0.0,meteohub,2013-03-29 05:56:00,
2013-03-29 02:02:00,40.6,35.2,29.93,West,277,2.0,5.0,81,-99.99,,,-99.99,0.0,meteohub,2013-03-29 06:02:00,
2013-03-29 02:07:00,40.5,35.4,29.93,West,266,2.0,5.0,82,-99.99,,,-99.99,0.0,meteohub,2013-03-29 06:07:00,
2013-03-29 02:12:00,40.6,35.6,29.93,West,263,2.0,5.0,82,-99.99,,,-99.99,0.0,meteohub,2013-03-29 06:12:00,
2013-03-29 02:17:00,40.5,35.4,29.93,West,270,1.0,5.0,82,-99.99,,,-99.99,0.0,meteohub,2013-03-29 06:17:00,
2013-03-29 02:22:00,40.5,35.4,29.92,West,268,1.0,5.0,82,-99.99,,,-99.99,0.0,meteohub,2013-03-29 06:22:00,
2013-03-29 02:27:00,40.3,35.2,29.93,West,267,0.0,5.0,82,-99.99,,,-99.99,0.0,meteohub,2013-03-29 06:27:00,
2013-03-29 02:32:00,39.9,34.9,29.92,West,267,0.0,3.0,82,-99.99,,,-99.99,0.0,meteohub,2013-03-29 06:32:00,
2013-03-29 02:37:00,39.7,35.1,29.92,West,267,0.0,3.0,83,-99.99,,,-99.99,0.0,meteohub,2013-03-29 06:37:00,
2013-03-29 02:42:00,39.4,34.7,29.93,West,267,0.0,2.0,83,-99.99,,,-99.99,0.0,meteohub,2013-03-29 06:42:00,
2013-03-29 02:48:00,39.2,34.7,29.92,West,267,0.0,0.0,84,-99.99,,,-99.99,0.0,meteohub,2013-03-29 06:48:00,
2013-03-29 02:53:00,39.6,35.1,29.92,West,267,1.0,2.0,84,-99.99,,,-99.99,0.0,meteohub,2013-03-29 06:53:00,
2013-03-29 02:58:00,39.9,35.4,29.92,West,267,2.0,2.0,84,-99.99,,,-99.99,0.0,meteohub,2013-03-29 06:58:00,
2013-03-29 03:03:00,40.5,35.8,29.92,West,267,0.0,2.0,83,-99.99,,,-99.99,0.0,meteohub,2013-03-29 07:03:00,
2013-03-29 03:08:00,40.3,35.6,29.92,West,267,0.0,4.0,83,-99.99,,,-99.99,0.0,meteohub,2013-03-29 07:08:00,
2013-03-29 03:13:00,40.3,35.6,29.92,West,263,1.0,4.0,83,-99.99,,,-99.99,0.0,meteohub,2013-03-29 07:13:00,
2013-03-29 03:19:00,40.3,35.6,29.92,West,263,0.0,3.0,83,-99.99,,,-99.99,0.0,meteohub,2013-03-29 07:19:00,
2013-03-29 03:24:00,39.9,35.2,29.93,West,263,0.0,3.0,83,-99.99,,,-99.99,0.0,meteohub,2013-03-29 07:24:00,
2013-03-29 03:29:00,39.6,35.1,29.92,WSW,248,0.0,3.0,84,-99.99,,,-99.99,0.0,meteohub,2013-03-29 07:29:00,
2013-03-29 03:34:00,39.7,35.6,29.92,West,273,4.0,4.0,85,-99.99,,,-99.99,0.0,meteohub,2013-03-29 07:34:00,
2013-03-29 03:39:00,40.5,36.0,29.92,West,269,3.0,7.0,84,-99.99,,,-99.99,0.0,meteohub,2013-03-29 07:39:00,
2013-03-29 03:44:00,40.8,36.1,29.92,West,268,2.0,7.0,83,-99.99,,,-99.99,0.0,meteohub,2013-03-29 07:44:00,
2013-03-29 03:49:00,41.2,36.5,29.92,West,262,2.0,7.0,83,-99.99,,,-99.99,0.0,meteohub,2013-03-29 07:49:00,
2013-03-29 03:55:00,41.0,36.5,29.92,West,263,3.0,5.0,84,-99.99,,,-99.99,0.0,meteohub,2013-03-29 07:55:00,
2013-03-29 04:00:00,40.8,36.7,29.92,West,263,4.0,6.0,85,-99.99,,,-99.99,0.0,meteohub,2013-03-29 08:00:00,
2013-03-29 04:05:00,40.8,36.7,29.92,West,260,5.0,6.0,85,-99.99,,,-99.99,0.0,meteohub,2013-03-29 08:05:00,
2013-03-29 04:10:00,40.6,36.5,29.92,West,261,3.0,8.0,85,-99.99,,,-99.99,0.0,meteohub,2013-03-29 08:10:00,
2013-03-29 04:15:00,40.6,36.5,29.92,West,266,3.0,8.0,85,-99.99,,,-99.99,0.0,meteohub,2013-03-29 08:15:00,
2013-03-29 04:20:00,40.6,36.5,29.92,West,270,2.0,8.0,85,-99.99,,,-99.99,0.0,meteohub,2013-03-29 08:20:00,
2013-03-29 04:25:00,40.6,36.5,29.92,West,266,1.0,6.0,85,-99.99,,,-99.99,0.0,meteohub,2013-03-29 08:25:00,
2013-03-29 04:31:00,40.5,36.3,29.92,West,273,2.0,6.0,85,-99.99,,,-99.99,0.0,meteohub,2013-03-29 08:31:00,
2013-03-29 04:37:00,40.5,36.7,29.92,West,273,1.0,6.0,86,-99.99,,,-99.99,0.0,meteohub,2013-03-29 08:37:00,
2013-03-29 04:42:00,40.3,36.1,29.92,West,281,1.0,5.0,85,-99.99,,,-99.99,0.0,meteohub,2013-03-29 08:42:00,
2013-03-29 04:47:00,40.3,36.1,29.92,West,267,2.0,5.0,85,-99.99,,,-99.99,0.0,meteohub,2013-03-29 08:47:00,
2013-03-29 04:52:00,39.9,35.8,29.92,West,266,0.0,5.0,85,-99.99,,,-99.99,0.0,meteohub,2013-03-29 08:52:00,
2013-03-29 04:57:00,39.7,35.6,29.92,West,263,0.0,4.0,85,-99.99,,,-99.99,0.0,meteohub,2013-03-29 08:57:00,
2013-03-29 05:02:00,39.7,35.6,29.92,West,263,0.0,3.0,85,-99.99,,,-99.99,0.0,meteohub,2013-03-29 09:02:00,
2013-03-29 05:07:00,39.4,35.2,29.92,West,263,0.0,3.0,85,-99.99,,,-99.99,0.0,meteohub,2013-03-29 09:07:00,
2013-03-29 05:12:00,38.8,35.1,29.92,West,263,0.0,2.0,86,-99.99,,,-99.99,0.0,meteohub,2013-03-29 09:12:00,
2013-03-29 05:17:00,38.8,35.2,29.92,West,263,1.0,1.0,87,-99.99,,,-99.99,0.0,meteohub,2013-03-29 09:17:00,
2013-03-29 05:22:00,38.8,35.2,29.92,West,267,3.0,3.0,87,-99.99,,,-99.99,0.0,meteohub,2013-03-29 09:22:00,
2013-03-29 05:27:00,39.0,35.2,29.91,West,269,1.0,4.0,86,-99.99,,,-99.99,0.0,meteohub,2013-03-29 09:27:00,
2013-03-29 05:32:00,38.7,35.1,29.92,West,269,2.0,4.0,87,-99.99,,,-99.99,0.0,meteohub,2013-03-29 09:32:00,
2013-03-29 05:37:00,38.5,34.9,29.92,West,267,0.0,4.0,87,-99.99,,,-99.99,0.0,meteohub,2013-03-29 09:37:00,
2013-03-29 05:42:00,38.7,35.1,29.92,West,268,1.0,4.0,87,-99.99,,,-99.99,0.0,meteohub,2013-03-29 09:42:00,
2013-03-29 05:47:00,38.7,35.1,29.92,West,272,2.0,4.0,87,-99.99,,,-99.99,0.0,meteohub,2013-03-29 09:47:00,
2013-03-29 05:52:00,38.7,35.1,29.92,West,269,1.0,3.0,87,-99.99,,,-99.99,0.0,meteohub,2013-03-29 09:52:00,
2013-03-29 05:57:00,38.7,35.1,29.92,West,269,0.0,3.0,87,-99.99,,,-99.99,0.0,meteohub,2013-03-29 09:57:00,
2013-03-29 06:02:00,38.7,35.1,29.92,West,277,1.0,4.0,87,-99.99,,,-99.99,0.0,meteohub,2013-03-29 10:02:00,
2013-03-29 06:07:00,38.7,35.1,29.92,West,277,0.0,4.0,87,-99.99,,,-99.99,0.0,meteohub,2013-03-29 10:07:00,
2013-03-29 06:12:00,38.7,35.1,29.92,West,277,1.0,4.0,87,-99.99,,,-99.99,0.0,meteohub,2013-03-29 10:12:00,
2013-03-29 06:17:00,38.7,35.1,29.92,West,263,1.0,4.0,87,-99.99,,,-99.99,0.0,meteohub,2013-03-29 10:17:00,
2013-03-29 06:22:00,38.5,34.9,29.92,West,263,2.0,4.0,87,-99.99,,,-99.99,5.0,meteohub,2013-03-29 10:22:00,
2013-03-29 06:27:00,38.1,34.5,29.93,West,267,2.0,4.0,87,-99.99,,,-99.99,5.0,meteohub,2013-03-29 10:27:00,
2013-03-29 06:32:00,37.9,34.7,29.93,West,261,2.0,5.0,88,-99.99,,,-99.99,7.0,meteohub,2013-03-29 10:32:00,
2013-03-29 06:37:00,38.1,34.9,29.93,West,263,2.0,5.0,88,-99.99,,,-99.99,11.0,meteohub,2013-03-29 10:37:00,
2013-03-29 06:42:00,38.1,34.9,29.93,West,263,2.0,5.0,88,-99.99,,,-99.99,12.0,meteohub,2013-03-29 10:42:00,
2013-03-29 06:48:00,38.1,34.9,29.94,West,263,0.0,4.0,88,-99.99,,,-99.99,16.0,meteohub,2013-03-29 10:48:00,
2013-03-29 06:53:00,38.1,34.9,29.94,West,263,0.0,3.0,88,-99.99,,,-99.99,21.0,meteohub,2013-03-29 10:53:00,
2013-03-29 06:58:00,37.9,34.7,29.94,West,263,0.0,3.0,88,-99.99,,,-99.99,28.0,meteohub,2013-03-29 10:58:00,
2013-03-29 07:03:00,37.9,34.7,29.94,West,263,0.0,2.0,88,-99.99,,,-99.99,35.0,meteohub,2013-03-29 11:03:00,
2013-03-29 07:08:00,37.9,35.1,29.94,West,263,0.0,1.0,89,-99.99,,,-99.99,33.0,meteohub,2013-03-29 11:08:00,
2013-03-29 07:13:00,38.1,35.2,29.94,West,263,0.0,1.0,89,-99.99,,,-99.99,26.0,meteohub,2013-03-29 11:13:00,
2013-03-29 07:19:00,38.8,36.0,29.94,West,263,0.0,2.0,89,-99.99,,,-99.99,39.0,meteohub,2013-03-29 11:19:00,
2013-03-29 07:24:00,39.0,35.8,29.94,West,263,0.0,2.0,88,-99.99,,,-99.99,128.0,meteohub,2013-03-29 11:24:00,
2013-03-29 07:29:00,39.6,36.0,29.94,WNW,284,1.0,3.0,87,-99.99,,,-99.99,156.0,meteohub,2013-03-29 11:29:00,
2013-03-29 07:34:00,40.3,36.7,29.94,WNW,284,1.0,3.0,87,-99.99,,,-99.99,181.0,meteohub,2013-03-29 11:34:00,
2013-03-29 07:39:00,40.6,36.5,29.94,West,262,1.0,3.0,85,-99.99,,,-99.99,186.0,meteohub,2013-03-29 11:39:00,
2013-03-29 07:44:00,40.8,36.7,29.94,West,262,0.0,3.0,85,-99.99,,,-99.99,193.0,meteohub,2013-03-29 11:44:00,
2013-03-29 07:49:00,41.2,36.7,29.94,West,262,0.0,2.0,84,-99.99,,,-99.99,109.0,meteohub,2013-03-29 11:49:00,
2013-03-29 07:55:00,41.4,36.9,29.94,WNW,298,0.0,2.0,84,-99.99,,,-99.99,39.0,meteohub,2013-03-29 11:55:00,
2013-03-29 08:00:00,41.4,36.5,29.94,WSW,253,2.0,2.0,83,-99.99,,,-99.99,37.0,meteohub,2013-03-29 12:00:00,
2013-03-29 08:05:00,41.4,36.5,29.94,West,281,1.0,3.0,83,-99.99,,,-99.99,243.0,meteohub,2013-03-29 12:05:00,
2013-03-29 08:10:00,41.5,36.7,29.94,West,275,2.0,6.0,83,-99.99,,,-99.99,265.0,meteohub,2013-03-29 12:10:00,
2013-03-29 08:15:00,41.5,36.7,29.94,West,265,2.0,8.0,83,-99.99,,,-99.99,102.0,meteohub,2013-03-29 12:15:00,
2013-03-29 08:20:00,41.5,36.7,29.94,West,271,2.0,8.0,83,-99.99,,,-99.99,181.0,meteohub,2013-03-29 12:20:00,
2013-03-29 08:26:00,41.7,36.9,29.94,West,273,1.0,8.0,83,-99.99,,,-99.99,279.0,meteohub,2013-03-29 12:26:00,
2013-03-29 08:31:00,41.9,37.0,29.94,West,272,2.0,5.0,83,-99.99,,,-99.99,39.0,meteohub,2013-03-29 12:31:00,
2013-03-29 08:36:00,42.1,37.0,29.94,West,259,0.0,4.0,82,-99.99,,,-99.99,230.0,meteohub,2013-03-29 12:36:00,
2013-03-29 08:41:00,42.3,37.2,29.94,West,281,3.0,6.0,82,-99.99,,,-99.99,125.0,meteohub,2013-03-29 12:41:00,
2013-03-29 08:46:00,42.6,37.6,29.94,West,264,3.0,6.0,82,-99.99,,,-99.99,169.0,meteohub,2013-03-29 12:46:00,
2013-03-29 08:51:00,43.2,37.8,29.94,West,279,6.0,6.0,81,-99.99,,,-99.99,141.0,meteohub,2013-03-29 12:51:00,
2013-03-29 08:57:00,43.5,38.1,29.94,WSW,257,3.0,7.0,81,-99.99,,,-99.99,165.0,meteohub,2013-03-29 12:57:00,
2013-03-29 09:02:00,43.7,37.9,29.94,WNW,290,1.0,7.0,80,-99.99,,,-99.99,223.0,meteohub,2013-03-29 13:02:00,
2013-03-29 09:07:00,43.7,37.9,29.94,WNW,296,1.0,7.0,80,-99.99,,,-99.99,190.0,meteohub,2013-03-29 13:07:00,
2013-03-29 09:12:00,44.1,38.3,29.94,West,267,0.0,5.0,80,-99.99,,,-99.99,237.0,meteohub,2013-03-29 13:12:00,
2013-03-29 09:17:00,44.2,38.1,29.94,WSW,250,0.0,5.0,79,-99.99,,,-99.99,352.0,meteohub,2013-03-29 13:17:00,
2013-03-29 09:22:00,44.4,38.3,29.94,West,264,2.0,5.0,79,-99.99,,,-99.99,188.0,meteohub,2013-03-29 13:22:00,
2013-03-29 09:27:00,44.6,38.5,29.94,West,267,0.0,5.0,79,-99.99,,,-99.99,142.0,meteohub,2013-03-29 13:27:00,
2013-03-29 09:32:00,44.8,38.7,29.94,WNW,296,2.0,4.0,79,-99.99,,,-99.99,276.0,meteohub,2013-03-29 13:32:00,
2013-03-29 09:37:00,45.1,38.7,29.93,WNW,292,0.0,3.0,78,-99.99,,,-99.99,450.0,meteohub,2013-03-29 13:37:00,
2013-03-29 09:42:00,45.7,38.8,29.93,WNW,287,0.0,5.0,77,-99.99,,,-99.99,450.0,meteohub,2013-03-29 13:42:00,
2013-03-29 09:47:00,45.9,38.3,29.93,WSW,252,3.0,5.0,75,-99.99,,,-99.99,554.0,meteohub,2013-03-29 13:47:00,
2013-03-29 09:53:00,45.9,38.7,29.93,West,273,2.0,6.0,76,-99.99,,,-99.99,316.0,meteohub,2013-03-29 13:53:00,
2013-03-29 09:58:00,46.0,38.5,29.93,West,260,0.0,6.0,75,-99.99,,,-99.99,550.0,meteohub,2013-03-29 13:58:00,
2013-03-29 10:03:00,46.0,38.5,29.93,West,269,1.0,7.0,75,-99.99,,,-99.99,573.0,meteohub,2013-03-29 14:03:00,
2013-03-29 10:08:00,46.2,38.7,29.93,West,273,2.0,7.0,75,-99.99,,,-99.99,411.0,meteohub,2013-03-29 14:08:00,
2013-03-29 10:13:00,46.6,38.7,29.93,West,271,3.0,7.0,74,-99.99,,,-99.99,403.0,meteohub,2013-03-29 14:13:00,
2013-03-29 10:18:00,46.9,39.0,29.93,WNW,290,2.0,3.0,74,-99.99,,,-99.99,229.0,meteohub,2013-03-29 14:18:00,
2013-03-29 10:24:00,47.5,38.8,29.93,WSW,255,3.0,4.0,72,-99.99,,,-99.99,715.0,meteohub,2013-03-29 14:24:00,
2013-03-29 10:29:00,47.1,38.8,29.93,West,268,2.0,4.0,73,-99.99,,,-99.99,204.0,meteohub,2013-03-29 14:29:00,
2013-03-29 10:34:00,47.1,38.5,29.93,West,261,3.0,5.0,72,-99.99,,,-99.99,473.0,meteohub,2013-03-29 14:34:00,
2013-03-29 10:39:00,47.1,38.8,29.93,WSW,247,1.0,6.0,73,-99.99,,,-99.99,267.0,meteohub,2013-03-29 14:39:00,
2013-03-29 10:44:00,47.1,38.5,29.93,West,263,3.0,6.0,72,-99.99,,,-99.99,267.0,meteohub,2013-03-29 14:44:00,
2013-03-29 10:49:00,47.5,38.8,29.93,West,267,3.0,7.0,72,-99.99,,,-99.99,250.0,meteohub,2013-03-29 14:49:00,
2013-03-29 10:54:00,47.7,39.0,29.93,WSW,258,2.0,7.0,72,-99.99,,,-99.99,429.0,meteohub,2013-03-29 14:54:00,
2013-03-29 10:59:00,48.0,38.7,29.93,West,263,1.0,7.0,70,-99.99,,,-99.99,712.0,meteohub,2013-03-29 14:59:00,
2013-03-29 11:04:00,48.7,39.4,29.93,WNW,291,4.0,6.0,70,-99.99,,,-99.99,826.0,meteohub,2013-03-29 15:04:00,
2013-03-29 11:10:00,49.3,39.2,29.93,West,266,2.0,6.0,68,-99.99,,,-99.99,872.0,meteohub,2013-03-29 15:10:00,
2013-03-29 11:15:00,49.5,39.4,29.93,West,281,2.0,4.0,68,-99.99,,,-99.99,923.0,meteohub,2013-03-29 15:15:00,
2013-03-29 11:20:00,49.8,39.7,29.93,WNW,292,3.0,5.0,68,-99.99,,,-99.99,923.0,meteohub,2013-03-29 15:20:00,
2013-03-29 11:25:00,50.2,39.6,29.93,WNW,293,2.0,5.0,67,-99.99,,,-99.99,923.0,meteohub,2013-03-29 15:25:00,
2013-03-29 11:30:00,50.4,39.4,29.93,WNW,294,1.0,4.0,66,-99.99,,,-99.99,831.0,meteohub,2013-03-29 15:30:00,
2013-03-29 11:35:00,50.5,39.6,29.93,West,262,4.0,4.0,66,-99.99,,,-99.99,846.0,meteohub,2013-03-29 15:35:00,
2013-03-29 11:40:00,50.2,38.5,29.93,West,263,2.0,7.0,64,-99.99,,,-99.99,1048.0,meteohub,2013-03-29 15:40:00,
2013-03-29 11:46:00,49.1,38.7,29.93,West,261,1.0,7.0,67,-99.99,,,-99.99,332.0,meteohub,2013-03-29 15:46:00,
2013-03-29 11:51:00,49.1,37.8,29.93,West,265,3.0,7.0,65,-99.99,,,-99.99,248.0,meteohub,2013-03-29 15:51:00,
2013-03-29 11:56:00,48.7,38.7,29.93,West,271,2.0,8.0,68,-99.99,,,-99.99,253.0,meteohub,2013-03-29 15:56:00,
2013-03-29 12:01:00,49.3,38.5,29.93,WSW,257,5.0,8.0,66,-99.99,,,-99.99,253.0,meteohub,2013-03-29 16:01:00,
2013-03-29 12:06:00,49.8,38.1,29.93,WNW,285,1.0,6.0,64,-99.99,,,-99.99,202.0,meteohub,2013-03-29 16:06:00,
2013-03-29 12:11:00,49.8,38.8,29.93,West,261,5.0,7.0,66,-99.99,,,-99.99,204.0,meteohub,2013-03-29 16:11:00,
2013-03-29 12:16:00,50.0,38.7,29.92,West,272,1.0,7.0,65,-99.99,,,-99.99,309.0,meteohub,2013-03-29 16:16:00,
2013-03-29 12:21:00,50.7,39.0,29.92,WNW,302,3.0,6.0,64,-99.99,,,-99.99,800.0,meteohub,2013-03-29 16:21:00,
2013-03-29 12:27:00,51.3,39.6,29.92,WNW,298,1.0,6.0,64,-99.99,,,-99.99,680.0,meteohub,2013-03-29 16:27:00,
2013-03-29 12:32:00,51.8,38.3,29.92,WNW,285,2.0,5.0,60,-99.99,,,-99.99,891.0,meteohub,2013-03-29 16:32:00,
2013-03-29 12:37:00,52.0,38.1,29.92,WSW,246,4.0,5.0,59,-99.99,,,-99.99,281.0,meteohub,2013-03-29 16:37:00,
2013-03-29 12:42:00,51.1,38.5,29.92,West,274,3.0,5.0,62,-99.99,,,-99.99,313.0,meteohub,2013-03-29 16:42:00,
2013-03-29 12:47:00,50.5,37.6,29.92,WSW,248,4.0,5.0,61,-99.99,,,-99.99,258.0,meteohub,2013-03-29 16:47:00,
2013-03-29 12:52:00,50.5,37.9,29.92,West,263,4.0,7.0,62,-99.99,,,-99.99,304.0,meteohub,2013-03-29 16:52:00,
2013-03-29 12:57:00,51.4,37.9,29.91,WSW,255,4.0,7.0,60,-99.99,,,-99.99,304.0,meteohub,2013-03-29 16:57:00,
2013-03-29 13:02:00,51.3,38.3,29.91,West,266,3.0,7.0,61,-99.99,,,-99.99,311.0,meteohub,2013-03-29 17:02:00,
2013-03-29 13:08:00,51.3,37.8,29.91,WSW,246,3.0,7.0,60,-99.99,,,-99.99,232.0,meteohub,2013-03-29 17:08:00,
2013-03-29 13:13:00,50.5,36.7,29.91,West,262,2.0,7.0,59,-99.99,,,-99.99,118.0,meteohub,2013-03-29 17:13:00,
2013-03-29 13:18:00,50.2,37.2,29.91,West,266,2.0,7.0,61,-99.99,,,-99.99,77.0,meteohub,2013-03-29 17:18:00,
2013-03-29 13:23:00,49.8,36.9,29.91,West,266,3.0,7.0,61,-99.99,,,-99.99,146.0,meteohub,2013-03-29 17:23:00,
2013-03-29 13:28:00,49.8,37.4,29.91,West,263,3.0,7.0,62,-99.99,,,-99.99,223.0,meteohub,2013-03-29 17:28:00,
2013-03-29 13:33:00,50.2,36.9,29.91,West,260,3.0,5.0,60,-99.99,,,-99.99,227.0,meteohub,2013-03-29 17:33:00,
2013-03-29 13:39:00,50.2,36.3,29.91,West,259,5.0,5.0,59,-99.99,,,-99.99,179.0,meteohub,2013-03-29 17:39:00,
2013-03-29 13:44:00,50.5,35.4,29.91,WSW,256,6.0,8.0,56,-99.99,,,-99.99,192.0,meteohub,2013-03-29 17:44:00,
2013-03-29 13:49:00,50.5,35.4,29.91,West,264,3.0,8.0,56,-99.99,,,-99.99,244.0,meteohub,2013-03-29 17:49:00,
2013-03-29 13:54:00,50.5,36.3,29.90,West,262,5.0,8.0,58,-99.99,,,-99.99,237.0,meteohub,2013-03-29 17:54:00,
2013-03-29 13:59:00,50.7,36.0,29.90,West,260,5.0,8.0,57,-99.99,,,-99.99,206.0,meteohub,2013-03-29 17:59:00,
2013-03-29 14:05:00,50.7,35.1,29.90,WSW,237,5.0,8.0,55,-99.99,,,-99.99,202.0,meteohub,2013-03-29 18:05:00,
2013-03-29 14:10:00,50.5,35.4,29.90,WSW,257,6.0,8.0,56,-99.99,,,-99.99,221.0,meteohub,2013-03-29 18:10:00,
2013-03-29 14:15:00,50.7,34.7,29.90,WSW,245,4.0,7.0,54,-99.99,,,-99.99,255.0,meteohub,2013-03-29 18:15:00,
2013-03-29 14:20:00,50.7,34.2,29.90,WSW,257,3.0,7.0,53,-99.99,,,-99.99,241.0,meteohub,2013-03-29 18:20:00,
2013-03-29 14:25:00,50.7,34.2,29.90,West,263,7.0,8.0,53,-99.99,,,-99.99,220.0,meteohub,2013-03-29 18:25:00,
2013-03-29 14:31:00,50.5,35.1,29.90,WSW,257,5.0,9.0,55,-99.99,,,-99.99,225.0,meteohub,2013-03-29 18:31:00,
2013-03-29 14:36:00,50.5,34.5,29.90,West,259,5.0,9.0,54,-99.99,,,-99.99,214.0,meteohub,2013-03-29 18:36:00,
2013-03-29 14:42:00,50.4,35.2,29.90,WSW,249,5.0,9.0,56,-99.99,,,-99.99,185.0,meteohub,2013-03-29 18:42:00,
2013-03-29 14:47:00,50.2,34.2,29.90,West,266,7.0,9.0,54,-99.99,,,-99.99,142.0,meteohub,2013-03-29 18:47:00,
2013-03-29 14:52:00,49.8,34.3,29.90,West,261,3.0,8.0,55,-99.99,,,-99.99,125.0,meteohub,2013-03-29 18:52:00,
2013-03-29 14:57:00,49.5,34.3,29.90,WSW,256,4.0,9.0,56,-99.99,,,-99.99,156.0,meteohub,2013-03-29 18:57:00,
2013-03-29 15:02:00,49.5,34.3,29.90,West,274,4.0,9.0,56,-99.99,,,-99.99,178.0,meteohub,2013-03-29 19:02:00,
2013-03-29 15:07:00,49.6,34.5,29.90,West,271,5.0,9.0,56,-99.99,,,-99.99,178.0,meteohub,2013-03-29 19:07:00,
2013-03-29 15:12:00,49.6,35.4,29.90,West,259,4.0,7.0,58,-99.99,,,-99.99,183.0,meteohub,2013-03-29 19:12:00,
2013-03-29 15:17:00,49.6,35.1,29.90,West,259,3.0,7.0,57,-99.99,,,-99.99,179.0,meteohub,2013-03-29 19:17:00,
2013-03-29 15:22:00,49.3,35.1,29.90,West,265,6.0,7.0,58,-99.99,,,-99.99,169.0,meteohub,2013-03-29 19:22:00,
2013-03-29 15:28:00,49.5,33.4,29.90,WSW,252,4.0,7.0,54,-99.99,,,-99.99,146.0,meteohub,2013-03-29 19:28:00,
2013-03-29 15:33:00,49.8,33.8,29.90,WSW,251,4.0,8.0,54,-99.99,,,-99.99,116.0,meteohub,2013-03-29 19:33:00,
2013-03-29 15:38:00,50.0,33.6,29.90,West,263,4.0,9.0,53,-99.99,,,-99.99,98.0,meteohub,2013-03-29 19:38:00,
2013-03-29 15:43:00,49.8,33.8,29.90,West,262,4.0,9.0,54,-99.99,,,-99.99,90.0,meteohub,2013-03-29 19:43:00,
2013-03-29 15:49:00,49.5,33.4,29.90,West,259,5.0,9.0,54,-99.99,,,-99.99,86.0,meteohub,2013-03-29 19:49:00,
2013-03-29 15:54:00,49.5,33.4,29.90,West,259,4.0,9.0,54,-99.99,,,-99.99,83.0,meteohub,2013-03-29 19:54:00,
2013-03-29 15:59:00,49.5,33.4,29.90,WSW,257,5.0,7.0,54,-99.99,,,-99.99,81.0,meteohub,2013-03-29 19:59:00,
2013-03-29 16:04:00,49.3,34.2,29.90,WSW,254,4.0,9.0,56,-99.99,,,-99.99,70.0,meteohub,2013-03-29 20:04:00,
2013-03-29 16:09:00,49.3,33.3,29.90,WSW,255,7.0,9.0,54,-99.99,,,-99.99,86.0,meteohub,2013-03-29 20:09:00,
2013-03-29 16:14:00,49.5,33.4,29.90,West,259,4.0,10.0,54,-99.99,,,-99.99,107.0,meteohub,2013-03-29 20:14:00,
2013-03-29 16:19:00,49.5,34.0,29.90,WSW,257,5.0,10.0,55,-99.99,,,-99.99,134.0,meteohub,2013-03-29 20:19:00,
2013-03-29 16:25:00,49.5,34.0,29.90,West,275,3.0,10.0,55,-99.99,,,-99.99,125.0,meteohub,2013-03-29 20:25:00,
2013-03-29 16:30:00,49.5,34.0,29.90,West,261,2.0,9.0,55,-99.99,,,-99.99,114.0,meteohub,2013-03-29 20:30:00,
2013-03-29 16:35:00,49.3,34.2,29.90,West,259,2.0,9.0,56,-99.99,,,-99.99,116.0,meteohub,2013-03-29 20:35:00,
2013-03-29 16:40:00,49.5,34.0,29.90,West,259,5.0,6.0,55,-99.99,,,-99.99,114.0,meteohub,2013-03-29 20:40:00,
2013-03-29 16:45:00,49.5,34.3,29.90,West,262,3.0,6.0,56,-99.99,,,-99.99,109.0,meteohub,2013-03-29 20:45:00,
2013-03-29 16:50:00,49.5,34.0,29.90,WSW,256,5.0,9.0,55,-99.99,,,-99.99,98.0,meteohub,2013-03-29 20:50:00,
2013-03-29 16:55:00,49.5,34.3,29.90,West,262,4.0,9.0,56,-99.99,,,-99.99,98.0,meteohub,2013-03-29 20:55:00,
2013-03-29 17:00:00,49.3,34.7,29.90,WSW,254,4.0,9.0,57,-99.99,,,-99.99,107.0,meteohub,2013-03-29 21:00:00,
2013-03-29 17:06:00,49.1,34.5,29.90,West,259,5.0,6.0,57,-99.99,,,-99.99,105.0,meteohub,2013-03-29 21:06:00,
2013-03-29 17:11:00,48.7,35.1,29.91,West,263,2.0,6.0,59,-99.99,,,-99.99,102.0,meteohub,2013-03-29 21:11:00,
2013-03-29 17:16:00,48.7,35.4,29.91,WSW,257,1.0,6.0,60,-99.99,,,-99.99,95.0,meteohub,2013-03-29 21:16:00,
2013-03-29 17:21:00,48.6,35.2,29.91,West,259,2.0,5.0,60,-99.99,,,-99.99,90.0,meteohub,2013-03-29 21:21:00,
2013-03-29 17:27:00,48.6,35.2,29.91,West,259,3.0,5.0,60,-99.99,,,-99.99,83.0,meteohub,2013-03-29 21:27:00,
2013-03-29 17:32:00,48.6,35.2,29.91,West,277,2.0,4.0,60,-99.99,,,-99.99,81.0,meteohub,2013-03-29 21:32:00,
2013-03-29 17:37:00,48.6,34.9,29.91,West,266,4.0,4.0,59,-99.99,,,-99.99,77.0,meteohub,2013-03-29 21:37:00,
2013-03-29 17:42:00,48.7,35.1,29.91,West,273,3.0,6.0,59,-99.99,,,-99.99,76.0,meteohub,2013-03-29 21:42:00,
2013-03-29 17:47:00,48.6,35.2,29.91,West,259,1.0,6.0,60,-99.99,,,-99.99,69.0,meteohub,2013-03-29 21:47:00,
2013-03-29 17:52:00,48.4,35.1,29.91,West,265,2.0,6.0,60,-99.99,,,-99.99,65.0,meteohub,2013-03-29 21:52:00,
2013-03-29 17:57:00,48.2,34.9,29.91,West,265,2.0,4.0,60,-99.99,,,-99.99,56.0,meteohub,2013-03-29 21:57:00,
2013-03-29 18:02:00,48.4,34.7,29.91,West,270,3.0,4.0,59,-99.99,,,-99.99,47.0,meteohub,2013-03-29 22:02:00,
2013-03-29 18:07:00,48.4,35.1,29.91,West,281,3.0,4.0,60,-99.99,,,-99.99,37.0,meteohub,2013-03-29 22:07:00,
2013-03-29 18:12:00,48.0,34.9,29.91,West,280,3.0,4.0,60,-99.99,,,-99.99,30.0,meteohub,2013-03-29 22:12:00,
2013-03-29 18:17:00,48.2,34.9,29.91,West,259,4.0,9.0,60,-99.99,,,-99.99,25.0,meteohub,2013-03-29 22:17:00,
2013-03-29 18:22:00,48.0,34.3,29.91,WSW,244,4.0,9.0,59,-99.99,,,-99.99,23.0,meteohub,2013-03-29 22:22:00,
2013-03-29 18:27:00,48.0,34.3,29.91,West,259,2.0,9.0,59,-99.99,,,-99.99,19.0,meteohub,2013-03-29 22:27:00,
2013-03-29 18:32:00,48.0,34.3,29.91,West,264,3.0,7.0,59,-99.99,,,-99.99,16.0,meteohub,2013-03-29 22:32:00,
2013-03-29 18:37:00,47.8,34.7,29.92,West,263,3.0,7.0,60,-99.99,,,-99.99,12.0,meteohub,2013-03-29 22:37:00,
2013-03-29 18:42:00,47.7,34.0,29.92,West,277,2.0,5.0,59,-99.99,,,-99.99,9.0,meteohub,2013-03-29 22:42:00,
2013-03-29 18:47:00,47.7,34.5,29.92,West,259,1.0,4.0,60,-99.99,,,-99.99,7.0,meteohub,2013-03-29 22:47:00,
2013-03-29 18:53:00,47.7,34.5,29.92,West,262,1.0,4.0,60,-99.99,,,-99.99,0.0,meteohub,2013-03-29 22:53:00,
2013-03-29 18:58:00,47.5,33.8,29.92,SW,236,1.0,4.0,59,-99.99,,,-99.99,0.0,meteohub,2013-03-29 22:58:00,
2013-03-29 19:03:00,47.7,34.5,29.92,West,263,2.0,4.0,60,-99.99,,,-99.99,0.0,meteohub,2013-03-29 23:03:00,
2013-03-29 19:08:00,47.5,33.8,29.92,SW,234,1.0,4.0,59,-99.99,,,-99.99,0.0,meteohub,2013-03-29 23:08:00,
2013-03-29 19:13:00,47.5,34.3,29.92,WSW,239,2.0,4.0,60,-99.99,,,-99.99,0.0,meteohub,2013-03-29 23:13:00,
2013-03-29 19:18:00,47.5,33.8,29.92,WSW,244,1.0,5.0,59,-99.99,,,-99.99,0.0,meteohub,2013-03-29 23:18:00,
2013-03-29 19:24:00,47.3,34.2,29.92,WSW,246,0.0,5.0,60,-99.99,,,-99.99,0.0,meteohub,2013-03-29 23:24:00,
2013-03-29 19:29:00,46.9,33.8,29.93,WSW,246,2.0,5.0,60,-99.99,,,-99.99,0.0,meteohub,2013-03-29 23:29:00,
2013-03-29 19:34:00,46.8,33.6,29.93,SW,229,4.0,4.0,60,-99.99,,,-99.99,0.0,meteohub,2013-03-29 23:34:00,
2013-03-29 19:39:00,46.8,34.0,29.93,West,280,2.0,5.0,61,-99.99,,,-99.99,0.0,meteohub,2013-03-29 23:39:00,
2013-03-29 19:45:00,46.6,33.8,29.93,West,263,2.0,7.0,61,-99.99,,,-99.99,0.0,meteohub,2013-03-29 23:45:00,
2013-03-29 19:50:00,46.4,33.6,29.93,WSW,251,3.0,7.0,61,-99.99,,,-99.99,0.0,meteohub,2013-03-29 23:50:00,
2013-03-29 19:55:00,46.2,34.0,29.94,WSW,258,2.0,7.0,62,-99.99,,,-99.99,0.0,meteohub,2013-03-29 23:55:00,
2013-03-29 20:00:00,46.2,33.4,29.94,WSW,238,5.0,5.0,61,-99.99,,,-99.99,0.0,meteohub,2013-03-30 00:00:00,
2013-03-29 20:05:00,46.2,33.4,29.94,WSW,243,4.0,5.0,61,-99.99,,,-99.99,0.0,meteohub,2013-03-30 00:05:00,
2013-03-29 20:10:00,46.4,33.6,29.94,WSW,244,4.0,5.0,61,-99.99,,,-99.99,0.0,meteohub,2013-03-30 00:10:00,
2013-03-29 20:15:00,46.2,33.4,29.94,West,261,2.0,7.0,61,-99.99,,,-99.99,0.0,meteohub,2013-03-30 00:15:00,
2013-03-29 20:20:00,46.0,33.3,29.94,WSW,239,3.0,6.0,61,-99.99,,,-99.99,0.0,meteohub,2013-03-30 00:20:00,
2013-03-29 20:25:00,46.0,33.3,29.94,WSW,246,1.0,6.0,61,-99.99,,,-99.99,0.0,meteohub,2013-03-30 00:25:00,
2013-03-29 20:31:00,46.0,33.8,29.94,WSW,240,2.0,4.0,62,-99.99,,,-99.99,0.0,meteohub,2013-03-30 00:31:00,
2013-03-29 20:36:00,46.0,33.3,29.94,West,275,2.0,7.0,61,-99.99,,,-99.99,0.0,meteohub,2013-03-30 00:36:00,
2013-03-29 20:41:00,46.0,33.3,29.94,West,263,3.0,7.0,61,-99.99,,,-99.99,0.0,meteohub,2013-03-30 00:41:00,
2013-03-29 20:46:00,46.0,33.8,29.95,SW,231,3.0,7.0,62,-99.99,,,-99.99,0.0,meteohub,2013-03-30 00:46:00,
2013-03-29 20:51:00,46.0,33.8,29.95,West,277,3.0,6.0,62,-99.99,,,-99.99,0.0,meteohub,2013-03-30 00:51:00,
2013-03-29 20:57:00,45.9,34.0,29.95,West,263,3.0,6.0,63,-99.99,,,-99.99,0.0,meteohub,2013-03-30 00:57:00,
2013-03-29 21:02:00,45.7,33.4,29.95,WSW,239,3.0,6.0,62,-99.99,,,-99.99,0.0,meteohub,2013-03-30 01:02:00,
2013-03-29 21:07:00,45.7,33.8,29.95,West,260,2.0,7.0,63,-99.99,,,-99.99,0.0,meteohub,2013-03-30 01:07:00,
2013-03-29 21:12:00,45.5,33.6,29.95,West,260,4.0,7.0,63,-99.99,,,-99.99,0.0,meteohub,2013-03-30 01:12:00,
2013-03-29 21:17:00,45.3,33.4,29.95,WSW,258,2.0,6.0,63,-99.99,,,-99.99,0.0,meteohub,2013-03-30 01:17:00,
2013-03-29 21:22:00,45.1,33.6,29.96,West,273,0.0,5.0,64,-99.99,,,-99.99,0.0,meteohub,2013-03-30 01:22:00,
2013-03-29 21:27:00,45.1,33.6,29.96,WSW,238,2.0,4.0,64,-99.99,,,-99.99,0.0,meteohub,2013-03-30 01:27:00,
2013-03-29 21:32:00,45.0,33.4,29.96,WSW,254,0.0,4.0,64,-99.99,,,-99.99,0.0,meteohub,2013-03-30 01:32:00,
2013-03-29 21:38:00,45.0,34.0,29.96,West,272,1.0,6.0,65,-99.99,,,-99.99,0.0,meteohub,2013-03-30 01:38:00,
2013-03-29 21:43:00,44.8,34.2,29.96,WSW,242,4.0,6.0,66,-99.99,,,-99.99,0.0,meteohub,2013-03-30 01:43:00,
2013-03-29 21:48:00,44.6,34.0,29.96,West,265,2.0,6.0,66,-99.99,,,-99.99,0.0,meteohub,2013-03-30 01:48:00,
2013-03-29 21:53:00,44.2,33.3,29.96,West,265,3.0,5.0,65,-99.99,,,-99.99,0.0,meteohub,2013-03-30 01:53:00,
2013-03-29 21:59:00,44.2,33.6,29.96,West,265,2.0,5.0,66,-99.99,,,-99.99,0.0,meteohub,2013-03-30 01:59:00,
2013-03-29 22:04:00,44.2,33.6,29.96,West,265,2.0,7.0,66,-99.99,,,-99.99,0.0,meteohub,2013-03-30 02:04:00,
2013-03-29 22:09:00,43.9,33.6,29.96,West,265,1.0,7.0,67,-99.99,,,-99.99,0.0,meteohub,2013-03-30 02:09:00,
2013-03-29 22:14:00,43.7,33.8,29.96,West,261,4.0,4.0,68,-99.99,,,-99.99,0.0,meteohub,2013-03-30 02:14:00,
2013-03-29 22:19:00,43.5,33.3,29.96,West,263,2.0,5.0,67,-99.99,,,-99.99,0.0,meteohub,2013-03-30 02:19:00,
2013-03-29 22:25:00,43.5,34.0,29.96,West,263,2.0,5.0,69,-99.99,,,-99.99,0.0,meteohub,2013-03-30 02:25:00,
2013-03-29 22:30:00,43.3,33.8,29.96,WSW,256,3.0,5.0,69,-99.99,,,-99.99,0.0,meteohub,2013-03-30 02:30:00,
2013-03-29 22:35:00,43.0,33.8,29.96,WSW,256,1.0,6.0,70,-99.99,,,-99.99,0.0,meteohub,2013-03-30 02:35:00,
2013-03-29 22:40:00,42.8,33.6,29.96,West,262,4.0,6.0,70,-99.99,,,-99.99,0.0,meteohub,2013-03-30 02:40:00,
2013-03-29 22:45:00,43.0,33.4,29.96,WSW,238,3.0,6.0,69,-99.99,,,-99.99,0.0,meteohub,2013-03-30 02:45:00,
2013-03-29 22:50:00,43.2,33.6,29.96,WSW,238,3.0,5.0,69,-99.99,,,-99.99,0.0,meteohub,2013-03-30 02:50:00,
2013-03-29 22:55:00,43.2,33.6,29.96,WSW,254,3.0,5.0,69,-99.99,,,-99.99,0.0,meteohub,2013-03-30 02:55:00,
2013-03-29 23:00:00,43.0,33.4,29.96,West,266,3.0,6.0,69,-99.99,,,-99.99,0.0,meteohub,2013-03-30 03:00:00,
2013-03-29 23:05:00,43.0,33.4,29.96,WSW,254,3.0,6.0,69,-99.99,,,-99.99,0.0,meteohub,2013-03-30 03:05:00,
2013-03-29 23:11:00,43.0,33.8,29.96,West,263,2.0,6.0,70,-99.99,,,-99.99,0.0,meteohub,2013-03-30 03:11:00,
2013-03-29 23:16:00,42.8,33.3,29.96,SW,232,1.0,6.0,69,-99.99,,,-99.99,0.0,meteohub,2013-03-30 03:16:00,
2013-03-29 23:21:00,42.6,33.1,29.97,WNW,285,2.0,5.0,69,-99.99,,,-99.99,0.0,meteohub,2013-03-30 03:21:00,
2013-03-29 23:26:00,42.4,33.4,29.96,WNW,285,2.0,5.0,70,-99.99,,,-99.99,0.0,meteohub,2013-03-30 03:26:00,
2013-03-29 23:31:00,42.3,33.3,29.97,West,260,2.0,5.0,70,-99.99,,,-99.99,0.0,meteohub,2013-03-30 03:31:00,
2013-03-29 23:37:00,42.1,33.4,29.97,West,267,2.0,5.0,71,-99.99,,,-99.99,0.0,meteohub,2013-03-30 03:37:00,
2013-03-29 23:42:00,41.9,33.6,29.96,West,265,3.0,6.0,72,-99.99,,,-99.99,0.0,meteohub,2013-03-30 03:42:00,
2013-03-29 23:47:00,41.7,33.4,29.96,West,262,2.0,6.0,72,-99.99,,,-99.99,0.0,meteohub,2013-03-30 03:47:00,
2013-03-29 23:52:00,41.5,33.3,29.97,West,261,3.0,6.0,72,-99.99,,,-99.99,0.0,meteohub,2013-03-30 03:52:00,
2013-03-29 23:57:00,41.5,33.3,29.97,West,263,4.0,6.0,72,-99.99,,,-99.99,0.0,meteohub,2013-03-30 03:57:00,